GW1008 Weather Reports


Display with metric or nautical units.
time (UTC)temp
F
wind
direction
speed
MPH
gust
MPH
rain 1hr
in
rain 24hr
in
rain mn
in
humidity
%
barometer
mb
20260831232015 51 249 0.0 4.0 0.00 0.01 0.00 80 1012.5
20260831231531 51 0 0.0 4.0 0.00 0.01 0.00 80 1012.5
20260831231016 51 250 0.0 0.0 0.00 0.01 0.00 80 1012.6
20260831230516 51 0 0.0 0.0 0.00 0.01 0.00 80 1012.6
20260831230032 51 0 0.0 0.0 0.00 0.01 0.00 80 1012.6
20260831225516 51 0 0.0 0.0 0.00 0.01 0.01 80 1012.6
20260831225017 51 0 0.0 0.0 0.00 0.01 0.01 80 1012.6
20260831224532 51 0 0.0 0.0 0.00 0.01 0.01 79 1012.6
20260831224015 52 0 0.0 0.0 0.00 0.01 0.01 79 1012.7
20260831223515 52 0 0.0 0.0 0.00 0.01 0.01 79 1012.6
20260831223034 52 0 0.0 0.0 0.00 0.01 0.01 79 1012.7
20260831222515 52 0 0.0 0.0 0.00 0.01 0.01 78 1012.7
20260831222016 52 0 0.0 0.0 0.00 0.01 0.01 77 1012.7
20260831221539 52 0 0.0 0.0 0.00 0.01 0.01 77 1012.8
20260831221016 52 0 0.0 0.0 0.00 0.01 0.01 77 1012.8
20260831220518 52 0 0.0 0.0 0.00 0.01 0.01 78 1012.8
20260831220036 52 0 0.0 0.0 0.00 0.01 0.01 77 1012.8
20260831215517 52 0 0.0 0.0 0.00 0.01 0.01 77 1012.8
20260831215017 52 0 0.0 0.0 0.00 0.01 0.01 77 1012.8
20260831214533 53 0 0.0 0.0 0.00 0.01 0.01 77 1012.7
20260831214017 53 0 0.0 0.0 0.00 0.01 0.01 76 1012.7
20260831213516 53 0 0.0 0.0 0.00 0.01 0.01 76 1012.6
20260831213038 53 0 0.0 1.0 0.00 0.01 0.01 76 1012.7
20260831212526 53 0 0.0 3.0 0.00 0.01 0.01 76 1012.5
20260831212020 53 0 0.0 4.0 0.00 0.01 0.01 76 1012.6
20260831211531 53 0 0.0 4.0 0.00 0.01 0.01 76 1012.6
20260831211017 53 0 0.0 3.0 0.00 0.01 0.01 76 1012.5
20260831210517 53 0 0.0 3.0 0.00 0.01 0.01 76 1012.5
20260831210036 53 0 0.0 3.0 0.00 0.01 0.01 76 1012.4
20260831205518 53 0 0.0 4.0 0.00 0.01 0.01 76 1012.5
20260831205018 53 0 0.0 5.0 0.00 0.01 0.01 76 1012.4
20260831204532 53 286 0.0 5.0 0.00 0.01 0.01 76 1012.3
20260831204021 53 0 0.0 4.0 0.00 0.01 0.01 77 1012.3
20260831203516 53 0 0.0 4.0 0.00 0.01 0.01 77 1012.2
20260831203032 53 0 0.0 2.0 0.00 0.01 0.01 77 1012.2
20260831202518 53 0 0.0 0.0 0.00 0.01 0.01 77 1012.2
20260831202017 53 0 0.0 0.0 0.00 0.01 0.01 76 1012.1
20260831201541 53 0 0.0 3.0 0.00 0.01 0.01 76 1012.1
20260831201023 53 0 0.0 3.0 0.00 0.01 0.01 76 1012.1
20260831200516 53 285 0.0 4.0 0.00 0.01 0.01 76 1011.9
20260831200040 53 0 0.0 8.0 0.00 0.01 0.01 76 1011.9
20260831195521 54 281 0.0 8.0 0.00 0.01 0.01 76 1011.9
20260831195020 54 290 1.0 8.0 0.00 0.01 0.01 76 1012.0
20260831194600 54 0 0.0 3.0 0.00 0.01 0.01 76 1012.0
20260831194018 54 0 0.0 3.0 0.00 0.01 0.01 76 1012.1
20260831193522 54 0 0.0 0.0 0.00 0.01 0.01 77 1012.1
20260831193040 55 0 0.0 0.0 0.00 0.01 0.01 77 1012.0
20260831192518 55 0 0.0 0.0 0.00 0.01 0.01 77 1012.0
20260831192018 55 0 0.0 0.0 0.00 0.01 0.01 77 1011.9
20260831191536 55 0 0.0 0.0 0.00 0.01 0.01 76 1011.9
20260831191019 55 0 0.0 0.0 0.00 0.01 0.01 77 1011.7
20260831190516 55 0 0.0 0.0 0.00 0.01 0.01 76 1011.7
20260831190032 56 0 0.0 0.0 0.00 0.01 0.01 76 1011.6
20260831185518 56 0 0.0 0.0 0.00 0.04 0.01 76 1011.6
20260831185017 56 0 0.0 0.0 0.00 0.04 0.01 76 1011.5
20260831184544 56 0 0.0 5.0 0.00 0.04 0.01 76 1011.4
20260831184015 56 0 0.0 5.0 0.00 0.04 0.01 76 1011.3
20260831183517 57 0 0.0 6.0 0.00 0.04 0.01 76 1011.2
20260831183038 57 0 0.0 6.0 0.00 0.04 0.01 76 1011.2
20260831182516 57 0 0.0 2.0 0.00 0.04 0.01 77 1011.1
20260831182017 57 0 0.0 0.0 0.00 0.04 0.01 77 1011.1
20260831181536 57 0 0.0 7.0 0.00 0.04 0.01 77 1011.2
20260831181018 57 0 0.0 7.0 0.00 0.04 0.01 77 1011.1
20260831180523 57 0 0.0 7.0 0.00 0.04 0.01 76 1011.0
20260831180035 58 0 0.0 7.0 0.00 0.04 0.01 77 1010.8
20260831175516 58 0 0.0 6.0 0.00 0.08 0.01 77 1010.8
20260831175016 58 288 0.0 11.0 0.00 0.08 0.01 76 1010.8
20260831174532 59 0 1.0 11.0 0.00 0.08 0.01 76 1010.7
20260831174016 59 0 0.0 9.0 0.00 0.08 0.01 76 1010.7
20260831173516 59 0 0.0 9.0 0.00 0.08 0.01 75 1010.5
20260831173050 59 0 0.0 3.0 0.00 0.08 0.01 76 1010.4
20260831172516 60 0 0.0 7.0 0.00 0.08 0.01 76 1010.3
20260831172018 60 275 0.0 9.0 0.00 0.08 0.01 75 1010.2
20260831171534 60 0 0.0 13.0 0.00 0.08 0.01 76 1010.2
20260831171016 60 284 1.0 13.0 0.00 0.08 0.01 76 1010.0
20260831170516 60 0 0.0 7.0 0.00 0.08 0.01 76 1009.9
20260831170037 60 286 0.0 9.0 0.00 0.08 0.01 76 1009.9
20260831165519 60 0 1.0 9.0 0.00 0.08 0.01 77 1009.9
20260831165015 60 300 0.0 7.0 0.00 0.08 0.01 77 1009.9
20260831164536 60 0 0.0 6.0 0.00 0.08 0.01 77 1009.9
20260831164017 60 0 0.0 4.0 0.00 0.08 0.01 77 1009.9
20260831163519 60 0 0.0 8.0 0.00 0.08 0.01 77 1009.8
20260831163031 61 0 0.0 10.0 0.00 0.08 0.01 76 1009.8
20260831162521 61 0 0.0 10.0 0.00 0.08 0.01 75 1009.8
20260831162017 62 345 1.0 10.0 0.00 0.08 0.01 73 1009.7
20260831161536 62 0 0.0 10.0 0.00 0.08 0.01 72 1009.6
20260831161020 63 309 0.0 7.0 0.00 0.08 0.01 72 1009.5
20260831160515 63 0 1.0 11.0 0.00 0.08 0.01 72 1009.5
20260831160032 63 285 1.0 11.0 0.00 0.08 0.01 73 1009.4
20260831155519 62 0 0.0 9.0 0.00 0.08 0.01 71 1009.3
20260831155018 62 0 0.0 11.0 0.00 0.08 0.01 70 1009.2
20260831154601 63 288 1.0 11.0 0.00 0.08 0.01 70 1009.1
20260831154023 63 360 1.0 8.0 0.00 0.08 0.01 71 1009.0
20260831153521 64 0 0.0 7.0 0.00 0.08 0.01 71 1009.0
20260831153036 64 0 0.0 4.0 0.00 0.08 0.01 70 1008.9
20260831152516 64 0 0.0 4.0 0.00 0.08 0.01 70 1008.8
20260831152021 64 0 0.0 10.0 0.00 0.08 0.01 71 1008.7
20260831151533 64 0 0.0 10.0 0.00 0.08 0.01 71 1008.6
20260831151020 63 291 1.0 10.0 0.00 0.08 0.01 73 1008.5
20260831150518 63 0 0.0 7.0 0.00 0.08 0.01 73 1008.5
20260831150034 62 0 0.0 3.0 0.00 0.08 0.01 75 1008.5
20260831145517 62 0 0.0 10.0 0.00 0.08 0.01 75 1008.4
20260831145017 62 0 0.0 10.0 0.00 0.08 0.01 75 1008.5
20260831144546 62 0 0.0 8.0 0.00 0.08 0.01 74 1008.5
20260831144015 62 0 0.0 11.0 0.00 0.08 0.01 74 1008.5
20260831143517 62 0 0.0 11.0 0.00 0.08 0.01 73 1008.5
20260831143041 62 0 1.0 12.0 0.00 0.08 0.01 73 1008.5
20260831142516 63 0 1.0 12.0 0.00 0.08 0.01 72 1008.5
20260831142019 63 296 1.0 9.0 0.00 0.08 0.01 71 1008.5
20260831141535 63 264 0.0 8.0 0.00 0.08 0.01 71 1008.4
20260831141019 64 0 1.0 10.0 0.00 0.08 0.01 71 1008.3
20260831140518 64 302 0.0 10.0 0.00 0.08 0.01 72 1008.2
20260831140035 64 0 0.0 9.0 0.00 0.08 0.01 71 1008.1
20260831135517 64 0 0.0 8.0 0.00 0.08 0.01 71 1008.2
20260831135021 64 279 0.0 8.0 0.00 0.08 0.01 71 1008.1
20260831134532 64 288 1.0 8.0 0.00 0.08 0.01 70 1007.9
20260831134022 65 306 0.0 10.0 0.00 0.08 0.01 72 1008.0
20260831133518 64 0 0.0 10.0 0.00 0.08 0.01 72 1007.9
20260831133032 64 296 2.0 10.0 0.00 0.08 0.01 71 1007.8
20260831132518 64 270 0.0 10.0 0.00 0.08 0.01 72 1007.8
20260831132016 64 279 1.0 10.0 0.00 0.08 0.01 72 1007.7
20260831131531 64 281 1.0 10.0 0.00 0.08 0.01 72 1007.6
20260831131017 64 275 0.0 8.0 0.00 0.08 0.01 73 1007.5
20260831130516 64 281 1.0 8.0 0.00 0.08 0.01 71 1007.5
20260831130044 65 306 1.0 7.0 0.00 0.08 0.01 70 1007.5
20260831125518 65 288 0.0 14.0 0.00 0.08 0.01 71 1007.3
20260831125020 65 263 3.0 14.0 0.00 0.08 0.01 68 1007.3
20260831124531 66 309 0.0 4.0 0.00 0.08 0.01 69 1007.1
20260831124015 66 309 0.0 4.0 0.00 0.08 0.01 69 1007.1
20260831123515 66 0 0.0 4.0 0.00 0.08 0.01 67 1007.0
20260831123034 66 0 0.0 10.0 0.00 0.08 0.01 67 1007.0
20260831122517 66 0 0.0 10.0 0.00 0.08 0.01 67 1007.0
20260831122015 67 314 0.0 8.0 0.00 0.08 0.01 65 1006.9
20260831121536 67 0 0.0 9.0 0.00 0.08 0.01 65 1006.9
20260831121017 67 18 1.0 9.0 0.00 0.08 0.01 66 1006.8
20260831120519 68 268 1.0 9.0 0.00 0.08 0.01 63 1006.7
20260831120034 68 0 0.0 14.0 0.00 0.08 0.01 63 1006.7
20260831115516 69 0 2.0 14.0 0.00 0.08 0.01 61 1006.6
20260831115018 70 0 1.0 7.0 0.00 0.08 0.01 62 1006.5
20260831114535 70 0 0.0 7.0 0.00 0.08 0.01 61 1006.4
20260831114017 69 283 0.0 2.0 0.00 0.08 0.01 64 1006.4
20260831113516 69 0 0.0 5.0 0.00 0.08 0.01 64 1006.4
20260831113036 68 0 0.0 6.0 0.00 0.08 0.01 65 1006.5
20260831112517 67 0 1.0 8.0 0.00 0.08 0.01 66 1006.4
20260831112017 67 306 1.0 8.0 0.00 0.08 0.01 66 1006.4
20260831111540 67 0 0.0 7.0 0.00 0.08 0.01 67 1006.3
20260831111017 67 290 1.0 8.0 0.00 0.08 0.01 70 1006.3
20260831110516 67 296 1.0 11.0 0.00 0.08 0.01 69 1006.2
20260831110041 66 317 2.0 11.0 0.00 0.08 0.01 70 1006.2
20260831105519 66 275 2.0 11.0 0.00 0.08 0.01 73 1006.0
20260831105019 65 319 1.0 11.0 0.00 0.08 0.01 75 1005.9
20260831104532 64 25 2.0 11.0 0.00 0.08 0.01 72 1006.0
20260831104016 65 339 1.0 10.0 0.00 0.08 0.01 72 1006.0
20260831103516 65 0 1.0 10.0 0.00 0.08 0.01 72 1006.0
20260831103033 65 273 1.0 7.0 0.00 0.08 0.01 74 1006.0
20260831102518 64 274 1.0 7.0 0.00 0.08 0.01 73 1006.0
20260831102015 64 0 0.0 1.0 0.00 0.08 0.01 73 1005.9
20260831101534 64 0 0.0 7.0 0.00 0.08 0.01 74 1005.9
20260831101022 64 0 0.0 7.0 0.00 0.08 0.01 72 1005.9
20260831100516 64 0 0.0 3.0 0.00 0.08 0.01 73 1005.8
20260831100034 64 0 0.0 4.0 0.00 0.08 0.01 75 1005.8
20260831095516 64 0 0.0 4.0 0.00 0.08 0.01 75 1005.9
20260831095015 64 0 0.0 7.0 0.00 0.08 0.01 75 1005.8
20260831094538 64 296 0.0 7.0 0.00 0.08 0.01 76 1005.8
20260831094018 64 0 0.0 4.0 0.00 0.08 0.01 76 1005.7
20260831093519 63 292 0.0 9.0 0.00 0.08 0.01 78 1005.7
20260831093033 62 0 0.0 9.0 0.00 0.08 0.01 79 1005.7
20260831092515 61 292 1.0 9.0 0.00 0.08 0.01 81 1005.5
20260831092022 61 310 1.0 5.0 0.00 0.08 0.01 80 1005.6
20260831091533 61 0 0.0 4.0 0.00 0.08 0.01 80 1005.6
20260831091018 61 0 1.0 8.0 0.00 0.08 0.01 81 1005.5
20260831090516 60 281 0.0 8.0 0.00 0.08 0.01 81 1005.6
20260831090035 60 0 0.0 3.0 0.00 0.08 0.01 83 1005.4
20260831085519 60 0 0.0 3.0 0.00 0.08 0.01 83 1005.3
20260831085022 60 0 0.0 4.0 0.00 0.08 0.01 82 1005.3
20260831084541 60 0 0.0 4.0 0.00 0.08 0.01 84 1005.4
20260831084018 59 0 0.0 4.0 0.00 0.08 0.01 84 1005.3
20260831083517 59 309 1.0 7.0 0.00 0.08 0.01 84 1005.3
20260831083033 59 0 0.0 7.0 0.00 0.08 0.01 86 1005.2
20260831082518 59 0 1.0 7.0 0.00 0.08 0.01 87 1005.2
20260831082017 59 296 2.0 7.0 0.00 0.08 0.01 87 1005.1
20260831081535 59 333 0.0 4.0 0.00 0.08 0.01 89 1005.1
20260831081016 59 0 0.0 4.0 0.00 0.08 0.01 90 1005.1
20260831080517 58 333 0.0 4.0 0.00 0.08 0.01 91 1005.1
20260831080034 58 0 2.0 4.0 0.00 0.08 0.01 91 1005.0
20260831075518 58 0 1.0 4.0 0.00 0.08 0.01 92 1005.0
20260831075027 58 0 0.0 1.0 0.00 0.08 0.01 93 1005.1
20260831074540 57 0 0.0 1.0 0.00 0.08 0.01 93 1005.0
20260831074016 56 0 0.0 0.0 0.00 0.08 0.01 92 1004.9
20260831073518 56 0 0.0 2.0 0.00 0.08 0.01 92 1004.9
20260831073100 56 0 0.0 2.0 0.00 0.08 0.01 93 1004.9
20260831072517 55 0 0.0 0.0 0.00 0.08 0.01 94 1004.9
20260831072017 55 0 0.0 0.0 0.00 0.08 0.01 93 1004.9
20260831071534 55 0 0.0 0.0 0.00 0.08 0.01 93 1004.9
20260831071017 54 0 0.0 0.0 0.00 0.08 0.01 93 1004.8
20260831070519 54 0 0.0 2.0 0.00 0.08 0.01 93 1004.8
20260831070035 53 0 0.0 2.0 0.00 0.08 0.01 93 1004.8
20260831065522 53 98 0.0 2.0 0.00 0.08 0.01 93 1004.7
20260831065017 52 0 0.0 0.0 0.00 0.08 0.01 92 1004.7
20260831064539 52 0 0.0 0.0 0.00 0.08 0.01 92 1004.7
20260831064015 51 0 0.0 0.0 0.00 0.08 0.01 92 1004.6
20260831063515 51 0 0.0 0.0 0.00 0.08 0.01 91 1004.5
20260831063030 51 0 0.0 0.0 0.00 0.08 0.01 91 1004.4
20260831062519 51 0 0.0 0.0 0.00 0.08 0.01 91 1004.3
20260831062017 51 0 0.0 0.0 0.00 0.08 0.01 91 1004.3
20260831061538 51 0 0.0 0.0 0.00 0.08 0.01 91 1004.4
20260831061019 51 0 0.0 0.0 0.00 0.08 0.01 90 1004.3
20260831060520 51 0 0.0 0.0 0.00 0.08 0.01 90 1004.2
20260831060036 51 0 0.0 0.0 0.00 0.08 0.01 90 1004.3
20260831055518 51 0 0.0 0.0 0.00 0.08 0.01 91 1004.1
20260831055019 51 0 0.0 0.0 0.00 0.08 0.01 91 1004.0
20260831054539 51 0 0.0 0.0 0.00 0.08 0.01 91 1003.9
20260831054018 52 0 0.0 0.0 0.00 0.08 0.01 91 1003.8
20260831053518 51 0 0.0 0.0 0.00 0.08 0.01 91 1003.8
20260831053035 52 0 0.0 0.0 0.00 0.08 0.01 91 1003.8
20260831052516 52 0 0.0 0.0 0.00 0.08 0.01 90 1003.8
20260831052021 52 0 0.0 0.0 0.00 0.08 0.01 90 1003.8
20260831051534 52 0 0.0 0.0 0.00 0.08 0.01 90 1003.7
20260831051018 52 0 0.0 0.0 0.00 0.08 0.01 91 1003.8
20260831050520 52 0 0.0 2.0 0.00 0.08 0.01 91 1003.7
20260831050042 52 0 0.0 2.0 0.00 0.08 0.01 91 1003.6
20260831045516 52 98 0.0 2.0 0.00 0.08 0.01 91 1003.7
20260831045018 52 0 0.0 0.0 0.00 0.08 0.01 90 1003.6
20260831044534 52 0 0.0 0.0 0.00 0.08 0.01 90 1003.6
20260831044020 52 0 0.0 0.0 0.00 0.08 0.01 90 1003.5
20260831043517 52 0 0.0 0.0 0.00 0.08 0.01 90 1003.5
20260831043036 53 0 0.0 0.0 0.00 0.08 0.01 90 1003.5
20260831042518 53 0 0.0 0.0 0.00 0.08 0.01 89 1003.4
20260831042015 53 0 0.0 0.0 0.00 0.08 0.01 90 1003.5
20260831041544 54 0 0.0 0.0 0.00 0.08 0.01 90 1003.4
20260831041017 54 0 0.0 0.0 0.00 0.08 0.01 90 1003.4
20260831040515 54 0 0.0 0.0 0.00 0.08 0.01 90 1003.3
20260831040045 54 0 0.0 0.0 0.00 0.08 0.01 90 1003.4
20260831035516 55 0 0.0 0.0 0.00 0.08 0.01 90 1003.3
20260831035016 55 0 0.0 0.0 0.00 0.08 0.01 91 1003.4
20260831034539 55 0 0.0 0.0 0.00 0.08 0.01 91 1003.4
20260831034016 55 0 0.0 0.0 0.00 0.08 0.01 91 1003.3
20260831033516 55 0 0.0 0.0 0.00 0.08 0.01 91 1003.3
20260831033034 55 0 0.0 0.0 0.00 0.08 0.01 91 1003.2
20260831032518 55 0 0.0 0.0 0.00 0.08 0.01 91 1003.3
20260831032017 55 0 0.0 0.0 0.00 0.08 0.01 91 1003.2
20260831031532 55 0 0.0 0.0 0.00 0.08 0.01 91 1003.2
20260831031019 55 0 0.0 0.0 0.00 0.08 0.01 91 1003.2
20260831030515 55 0 0.0 0.0 0.00 0.08 0.01 91 1003.2
20260831030044 55 0 0.0 0.0 0.00 0.08 0.01 91 1003.3
20260831025524 55 0 0.0 0.0 0.00 0.08 0.01 91 1003.2
20260831025016 55 0 0.0 0.0 0.00 0.08 0.01 91 1003.3
20260831024531 55 0 0.0 0.0 0.00 0.08 0.01 91 1003.3
20260831024019 55 0 0.0 0.0 0.00 0.08 0.01 91 1003.4
20260831023522 55 0 0.0 0.0 0.00 0.08 0.01 91 1003.3
20260831023035 54 0 0.0 2.0 0.00 0.08 0.01 91 1003.4
20260831022519 54 0 0.0 2.0 0.00 0.08 0.01 91 1003.2
20260831022015 54 0 0.0 2.0 0.00 0.08 0.01 91 1003.3
20260831021535 54 98 0.0 2.0 0.00 0.08 0.01 90 1003.3
20260831021014 54 0 0.0 0.0 0.00 0.08 0.01 90 1003.3
20260831020516 55 0 0.0 0.0 0.00 0.08 0.01 90 1003.4
20260831020031 55 0 0.0 0.0 0.00 0.08 0.01 90 1003.4
20260831015518 55 0 0.0 0.0 0.00 0.08 0.01 90 1003.4
20260831015015 55 0 0.0 0.0 0.00 0.08 0.01 90 1003.5
20260831014539 55 0 0.0 0.0 0.00 0.08 0.01 90 1003.5
20260831014018 55 0 0.0 0.0 0.00 0.08 0.01 90 1003.4
20260831013517 55 0 0.0 0.0 0.00 0.08 0.01 90 1003.4
20260831013035 55 0 0.0 0.0 0.00 0.08 0.01 90 1003.4
20260831012518 55 0 0.0 0.0 0.00 0.08 0.01 91 1003.5
20260831012018 56 0 0.0 0.0 0.00 0.08 0.01 91 1003.5
20260831011537 56 0 0.0 0.0 0.00 0.08 0.01 91 1003.5
20260831011019 56 0 0.0 0.0 0.00 0.08 0.01 91 1003.5
20260831010519 56 0 0.0 0.0 0.00 0.08 0.01 91 1003.6
20260831010035 56 0 0.0 0.0 0.00 0.08 0.01 91 1003.5
20260831005516 56 0 0.0 0.0 0.00 0.08 0.01 91 1003.6
20260831005016 56 0 0.0 0.0 0.00 0.08 0.01 91 1003.5
20260831004536 56 0 0.0 0.0 0.00 0.08 0.01 91 1003.6
20260831004018 56 0 0.0 0.0 0.00 0.08 0.01 91 1003.6
20260831003519 56 0 0.0 0.0 0.00 0.08 0.01 91 1003.6
20260831003032 56 0 0.0 0.0 0.00 0.08 0.01 91 1003.6
20260831002515 56 0 0.0 0.0 0.00 0.08 0.01 91 1003.7
20260831002016 56 0 0.0 0.0 0.00 0.08 0.01 91 1003.6
20260831001534 56 0 0.0 0.0 0.01 0.08 0.01 91 1003.7
20260831001017 56 0 0.0 0.0 0.01 0.08 0.01 90 1003.6
20260831000518 56 0 0.0 0.0 0.01 0.08 0.01 90 1003.6
20260831000048 56 0 0.0 0.0 0.01 0.08 0.01 90 1003.5
20260830235518 56 0 0.0 0.0 0.01 0.08 0.01 90 1003.6
20260830235018 56 0 0.0 0.0 0.01 0.08 0.01 90 1003.5
20260830234531 56 0 0.0 0.0 0.01 0.08 0.01 90 1003.6
20260830234021 56 0 0.0 0.0 0.01 0.08 0.01 90 1003.5
20260830233519 56 0 0.0 0.0 0.01 0.08 0.01 90 1003.6
20260830233051 56 0 0.0 0.0 0.01 0.08 0.01 90 1003.5
20260830232518 56 0 0.0 0.0 0.01 0.08 0.01 90 1003.5